www.pogodaiklimat.ru

Погода и климат >> Архив погоды >> Россия >> Дагестан >> Махачкала


АРХИВ ПОГОДЫ в Махачкале

Время (UTC), дата Ветер
(напр.,м/с)
 
Видим.   Явления Облачность Т
(С)
Тd
(С)
f
(%)
Тe
(С)
Тes
(С)
Комфортность P
(гПа)
Po
(гПа)
Тmin
(С)
Tmax
(С)
R
(мм)
R24
(мм)
S
(см)
12 18.05 В 6 10 км 8/0
[Ci fib]
+19.9 +14.9 73 +22 +25 комфорт 1009.3 1011.4
15 18.05 В 3 10 км 9/0
[Ac cast Ci fib]
+18.3 +15.0 81 +19 +19 тепло 1008.4 1010.5 +26.1
18 18.05 В 1 10 км 9/0
[Ac cast Ci fib]
+17.4 +15.0 86 +18 +18 тепло 1009.1 1011.2
21 18.05 З 1 10 км 9/0
[Ac cast Ci fib]
+16.2 +14.3 89 +17 +17 тепло 1008.0 1010.2
00 19.05 ЮЗ 2 10 км 9/4 600 м
[Sc Ac cast Ci fib]
+15.9 +14.3 90 +16 +16 тепло 1007.1 1009.3
03 19.05 З 3 10 км 10/4 600 м
[Sc Ac As]
+17.5 +14.8 84 +18 +18 тепло 1007.5 1009.6 +15.3
06 19.05 СЗ 4 10 км 9/3 600 м
[Sc diur, vesp Ac cast Ci fib]
+21.5 +14.9 66 +25 +28 комфорт 1007.5 1009.6
09 19.05 СВ 4 10 км 6/0
[Ac cast Ci fib]
+21.7 +15.8 69 +25 +35 комфорт 1007.8 1009.9
12 19.05 СВ 4 4000 м дымка 9/0
[Ac As Ci fib]
+19.7 +15.6 77 +22 +26 комфорт 1008.6 1010.7
15 19.05 В 1 4000 м дымка 9/5 600 м
[Cb calv Ac As Ci fib]
+20.2 +15.1 72 +24 +24 комфорт 1010.4 1012.5 +24.9
18 19.05 ЮЗ 2 10 км 8/0
[Ac trans Ci fib]
+18.2 +15.0 82 +19 +19 тепло 1011.7 1013.8
21 19.05 штиль 0 10 км {ливн. осадки} 9/0
[Ac trans Ci fib]
+17.9 +14.4 80 +18 +18 тепло 1012.7 1014.8
00 20.05 штиль 0 10 км 10/5 600 м
[Cb calv Ac As]
+18.8 +14.8 78 +20 +20 тепло 1012.0 1014.1
03 20.05 штиль 0 20 км 5/0
[Ci fib]
+16.8 +14.0 84 +17 +19 по сезону 1012.5 1014.6 +16.3
06 20.05 В 2 20 км 8/0
[Ac As Ci fib]
+22.9 +14.7 60 +27 +32 душно 1014.0 1016.1
09 20.05 В 2 20 км 10/8 600 м
[Sc Ac As]
+22.0 +15.7 67 +26 +27 душно 1014.8 1016.9
12 20.05 ЮЗ 1 10 км слаб. ливневой дождь 10/10 600 м
[Cb calv]
+17.5 +11.4 67 +19 +19 по сезону 1016.2 1018.4
15 20.05 СВ 2 20 км {ливн. осадки} 10/5 600 м
[Sc]
+20.5 +12.3 59 +23 +23 комфорт 1015.8 1017.9 +23.5 1
18 20.05 штиль 0 20 км 5/0
[Ac As Ci fib]
+16.2 +13.6 85 +16 +16 по сезону 1016.7 1018.8
21 20.05 штиль 0 10 км 10/6 600 м
[Sc Ac As]
+15.6 +13.5 87 +15 +15 по сезону 1017.8 1020.0
00 21.05 ЮВ 3 10 км 10/3 600 м
[Sc Ac As]
+18.7 +13.2 70 +20 +20 тепло 1018.4 1020.5
03 21.05 ЮВ 4 20 км 9/4 600 м
[Sc Ac As Ci fib]
+18.5 +13.0 70 +19 +19 тепло 1019.6 1021.8 +14.8 1
06 21.05 В 4 10 км 3/0
[Ci fib]
+21.0 +11.4 54 +23 +31 комфорт 1020.1 1022.2
09 21.05 В 4
{11}
10 км ясно +21.3 +10.0 48 +23 +36 комфорт 1020.7 1022.8
12 21.05 В 6-10
{11}
10 км ясно +20.0 +11.2 57 +21 +26 комфорт 1021.1 1023.2
15 21.05 В 4
{11}
10 км ясно +18.6 +10.8 60 +19 +20 тепло 1020.9 1023.0 +21.5
18 21.05 ЮВ 5
{10}
10 км ясно +17.5 +11.6 68 +17 +17 по сезону 1021.3 1023.4
21 21.05 ЮВ 3 10 км ясно +16.4 +10.8 69 +16 +16 по сезону 1020.6 1022.7
00 22.05 ЮВ 4
{12}
10 км 3/0
[Ci fib]
+15.9 +11.0 73 +15 +15 по сезону 1019.4 1021.6
03 22.05 ЮВ 5
{11}
10 км ясно +16.3 +10.6 69 +15 +16 по сезону 1018.2 1020.4 +15.5
06 22.05 ЮВ 7-15
{16}
10 км ясно +18.3 +11.9 66 +18 +21 по сезону 1015.8 1018.0
09 22.05 ЮВ 9-15
{19}
20 км 9/0
[Ac cast Ci fib]
+18.8 +12.5 67 +19 +20 по сезону 1014.1 1016.3
12 22.05 ЮВ 7-16
{19}
20 км 9/0
[Ac cast Ci fib]
+18.5 +13.0 70 +18 +20 по сезону 1013.0 1015.2
15 22.05 ЮВ 5-11
{16}
10 км 10/4 600 м
[Sc Ac As]
+18.2 +11.6 65 +18 +18 по сезону 1013.2 1015.3 +18.9
18 22.05 ЮВ 4 10 км в посл. час ливневой дождь 10/8 600 м
[Cb cap Ac As]
+17.1 +12.7 75 +17 +17 по сезону 1015.4 1017.5
21 22.05 ЮВ 2 4000 м слаб. ливневой дождь 10/10 600 м
[Cb cap]
+16.9 +14.4 85 +17 +17 тепло 1014.4 1016.5
00 23.05 штиль 0 4000 м дымка {ливн. осадки} 8/0
[Ac cast Ci fib]
+14.9 +12.8 87 +15 +15 по сезону 1013.7 1015.8
03 23.05 ЮЗ 2 10 км 4/0
[Ci fib]
+16.0 +14.5 91 +16 +18 по сезону 1013.3 1015.4 +14.0 0.8
06 23.05 СЗ 3 20 км {ливн. осадки} 8/3 600 м
[Cb calv Ac trans Ci fib]
+21.6 +13.8 61 +24 +29 комфорт 1012.7 1014.8 210
09 23.05 ЮВ 3 20 км 9/8 600 м
[Cb calv Ac trans Ci fib]
+20.2 +15.2 73 +23 +25 комфорт 1012.3 1014.4 250
12 23.05 В 2 20 км 9/8 600 м
[Cb calv Ac cast Ci fib]
+19.9 +15.4 75 +23 +24 комфорт 1011.6 1013.7 250
15 23.05 В 3 20 км 9/4 600 м
[Cb calv Ac trans Ci fib]
+19.0 +14.6 76 +20 +21 тепло 1010.5 1012.6 +24.2 0.3
18 23.05 СВ 1 4000 м дымка {ливн. осадки} 9/8 600 м
[Cb calv Ac trans]
+18.4 +15.7 84 +20 +20 тепло 1012.8 1014.9
21 23.05 З 4 4000 м в посл. час ливневой дождь 10/8 600 м
[Cb calv Ac und]
+19.0 +11.4 61 +20 +20 тепло 1012.7 1014.8
00 24.05 З 3 4000 м слаб. ливневой дождь 10/10 600 м
[Cb cap]
+17.4 +12.9 75 +17 +17 тепло 1012.9 1015.0
03 24.05 СЗ 2 20 км {ливн. осадки} 8/6 600 м
[Cb calv Ac trans Ci fib]
+20.0 +11.0 56 +22 +23 комфорт 1011.7 1013.8 +17.3 0.4
06 24.05 СВ 2 20 км ясно +22.4 +14.2 60 +26 +38 жарко 1012.4 1014.5
09 24.05 ЮВ 4 20 км н/о +22.0 +14.7 63 +25 +25 комфорт 1011.7 1013.8
12 24.05 ЮВ 5 20 км 8/4 600 м
[Cu med, cong Ac As]
+22.1 +13.2 57 +25 +27 комфорт 1011.4 1013.5
15 24.05 ЮВ 3 20 км 9/0
[Ac As Ci fib]
+22.9 +12.5 52 +26 +26 жарко 1011.4 1013.5 +25.2
18 24.05 ЮВ 2 20 км {гроза} ясно +20.5 +12.6 60 +23 +23 комфорт 1012.1 1014.2
21 24.05 ЮВ 2 20 км ясно +19.0 +13.7 71 +21 +21 комфорт 1012.0 1014.2
00 25.05 ЮВ 3
{1=}
20 км 8/0
[Ac As Ci fib]
+18.1 +13.5 74 +18 +18 тепло 1010.5 1012.6
03 25.05 ЮВ 3 20 км ясно +18.3 +13.2 72 +19 +20 тепло 1009.8 1011.9 +17.0
06 25.05 ЮВ 6-12
{12}
10 км ясно +19.3 +13.8 70 +20 +25 по сезону 1009.1 1011.2

 

Местоположение метеостанции Махачкала (Дагестан, Россия): широта 43.02 долгота 47.48 высота над уровнем моря -19 м.

В архиве по умолчанию представлена погода в Махачкале за последнюю неделю. Архивные данные за месяц целиком и за предыдущие месяцы, начиная с января 2011 года, Вы можете получить, выбрав интересующий диапазон дат из раскрывающегося списка и нажав кнопку "Ввод!".


*Определитесь, кто Вы:
робот инопланетянин человек

Внимание! Время в таблицах - всемирное. Для получения местного времени необходимо прибавить поправку, которая равна 3 ч.

Смотрите также архив погоды в соседних городах и на ближайших метеорологических станциях:

Погода в Буйнакске (Дагестан, Россия) (37 км)
Погода в Сергокале (Дагестан, Россия) (65 км)
Погода в Изберге (Дагестан, Россия) (65 км)
Погода в Куппе (Дагестан, Россия) (73 км)
Погода в Хасавюрте (Дагестан, Россия) (77 км)
Погода в Гунибе (Дагестан, Россия) (81 км)
Погода в Хунзахе (Дагестан, Россия) (81 км)
Погода в Бабаюрте (Дагестан, Россия) (86 км)
Погода в Кумухе (Дагестан, Россия) (104 км)
Погода в Шелковской (Чечня, Россия) (106 км)

Пояснения к столбцам:

Ветер - указаны скорость ветра в м/с - средняя за 10 мин, порывы в срок и между сроками (в фигурных скобках) и направление, откуда дует ветер: С - северный, СВ - северо-восточный, В - восточный, ЮВ - юго-восточный, Ю - южный, ЮЗ - юго-западный, З - западный, СЗ - северо-западный.
Видимость - горизонтальная дальность видимости в метрах или километрах. При видимости от 1 до 10 км при отсутствии осадков обычно наблюдается дымка, при ухудшении видимости до 1 км и менее - туман. В сухую погоду видимость может ухудшаться дымом, пылью или мглою.
Явления - указаны атмосферные явления, наблюдавшиеся в срок или в последний час перед сроком; фигурными скобками обозначены явления, наблюдавшиеся между сроками (за 1-3 часа до срока); квадратными скобками обозначены град или гололедные отложения с указанием их диаметра в мм.
Облачность - указаны через наклонную черту общая и нижняя облачность в баллах и высота нижней границы облаков в метрах; квадратными скобками обозначены формы облаков: Ci - перистые, Cs - перисто-слоистые, Cc - перисто-кучевые, Ac - высококучевые, As - высокослоистые, Sc - слоисто-кучевые, Ns - слоисто-дождевые, Cu - кучевые, Cb - кучево-дождевые. Подробнее классификацию облаков см. в Атласе облаков (PDF).
T - Температура воздуха - температура, измеренная на высоте 2 м над землей.
Td - Температура точки росы - температура, при понижении до которой содержащийся в воздухе водяной пар достигнет насыщения.
f - Относительная влажность воздуха - влажноcть воздуха, измеренная на высоте 2 м над землей.
Te - Эффективная температура - температура, которую ощущает одетый по сезону человек в тени. Характеристика душности погоды. При расчете учитывается влияние влажности воздуха и скорости ветра на теплоощущения человека.
Tes - Эффективная температура на солнце - температура, которую ощущает человек, с поправкой на солнечный нагрев. Характеристика знойности погоды. Зависит от высоты солнца над горизонтом, облачности и скорости ветра. Ночью, в пасмурную погоду, а также при ветре 12 м/с и более поправка равна нулю.
P - Атмосферное давление - приведенное к уровню моря атмосферное давление.
Po - Атмосферное давление - измеренное на уровне метеостанции атмосферное давление.
Tmin - Минимальная температура - минимум температуры воздуха на высоте 2 м над землей.
Tmax - Максимальная температура - максимум температуры воздуха на высоте 2 м над землей.
R - Количество осадков - Количество выпавших осадков за период времени, мм. При наведении курсора мыши на число - период времени, за который выпало указанное количество осадков.
R24 - Количество осадков - Количество выпавших осадков за 24 часа, мм.
S - Снежный покров - Высота снежного покрова, см. При наведении курсора мыши на число - состояние снежного покрова и степень покрытия местности в баллах.